Tracking 29892 objects as of 21-Nov-2024
HD Live streaming from Space Station
objects crossing your sky now

FENGYUN 1C DEB

Track FENGYUN 1C DEB now!
10-day predictions


NORAD ID: 36163
Int'l Code: 1999-025DSL
Perigee: 720.1 km
Apogee: 796.0 km
Inclination: 99.1 °
Period: 99.8 minutes
Semi major axis: 7129 km
RCS: 0.0021 m2 (small)
Launch date: May 10, 1999
Source: People's Republic of China (PRC)
Launch site: Taiyaun Space Center, China (TSC)

Note: This is SATELLITE DEBRIS
Your satellite tracking list
Your tracking list is empty




NASA's NSSDC Master Catalog

Two Line Element Set (TLE):
1 36163U 99025DSL 24324.43017248  .00020172  00000-0  60044-2 0  9996
2 36163  99.0895 131.3262 0053246 163.3912 196.9035 14.42307737835540
Source of the keplerian elements: AFSPC